K6NC Weather Reports


Display with metric or nautical units.
time (UTC)temp
F
wind
direction
speed
MPH
gust
MPH
rain 1hr
in
rain 24hr
in
rain mn
in
humidity
%
barometer
mb
20260901060036 58 163 2.0 7.0 0.00 0.00 0.00 79 1012.9
20260901055522 58 182 3.0 7.0 0.00 0.00 0.00 78 1012.8
20260901055019 59 169 3.0 7.0 0.00 0.00 0.00 78 1012.8
20260901054538 59 178 1.0 5.0 0.00 0.00 0.00 78 1012.7
20260901054019 59 0 2.0 6.0 0.00 0.00 0.00 78 1012.7
20260901053516 59 173 3.0 6.0 0.00 0.00 0.00 78 1012.7
20260901053052 59 196 3.0 6.0 0.00 0.00 0.00 78 1012.7
20260901052519 59 194 3.0 7.0 0.00 0.00 0.00 78 1012.8
20260901052020 59 173 3.0 7.0 0.00 0.00 0.00 77 1012.8
20260901051552 59 186 4.0 8.0 0.00 0.00 0.00 77 1012.8
20260901051017 59 169 3.0 8.0 0.00 0.00 0.00 77 1012.8
20260901050520 59 171 4.0 6.0 0.00 0.00 0.00 77 1012.8
20260901050036 60 197 4.0 9.0 0.00 0.00 0.00 76 1012.8
20260901045515 60 180 3.0 9.0 0.00 0.00 0.00 76 1012.7
20260901045023 60 180 5.0 9.0 0.00 0.00 0.00 76 1012.8
20260901044537 60 194 4.0 8.0 0.00 0.00 0.00 76 1012.8
20260901044019 60 207 4.0 9.0 0.00 0.00 0.00 76 1012.7
20260901043519 61 222 5.0 9.0 0.00 0.00 0.00 75 1012.8
20260901043040 61 219 5.0 9.0 0.00 0.00 0.00 76 1012.8
20260901042518 61 215 5.0 8.0 0.00 0.00 0.00 75 1012.7
20260901042019 61 205 4.0 10.0 0.00 0.00 0.00 75 1012.8
20260901041551 61 241 5.0 11.0 0.00 0.00 0.00 75 1012.7
20260901041019 61 195 5.0 11.0 0.00 0.00 0.00 75 1012.5
20260901040518 61 212 5.0 9.0 0.00 0.00 0.00 74 1012.5
20260901040038 61 236 5.0 11.0 0.00 0.00 0.00 75 1012.3
20260901035517 62 232 8.0 12.0 0.00 0.00 0.00 74 1012.2
20260901035017 62 220 7.0 14.0 0.00 0.00 0.00 74 1012.1
20260901034538 62 236 9.0 14.0 0.00 0.00 0.00 74 1012.0
20260901034017 62 237 7.0 12.0 0.00 0.00 0.00 74 1012.0
20260901033518 62 223 7.0 14.0 0.00 0.00 0.00 74 1012.0
20260901033035 62 252 7.0 15.0 0.00 0.00 0.00 73 1011.9
20260901032519 62 235 10.0 15.0 0.00 0.00 0.00 73 1011.8
20260901032024 62 232 11.0 17.0 0.00 0.00 0.00 73 1011.7
20260901031551 62 241 11.0 17.0 0.00 0.00 0.00 73 1011.7
20260901031020 63 225 9.0 16.0 0.00 0.00 0.00 72 1011.6
20260901030517 63 241 10.0 15.0 0.00 0.00 0.00 72 1011.6
20260901030036 63 239 11.0 18.0 0.00 0.00 0.00 71 1011.4
20260901025618 63 239 11.0 18.0 0.00 0.00 0.00 71 1011.2
20260901025020 64 256 13.0 20.0 0.00 0.00 0.00 70 1011.2
20260901024537 64 238 14.0 20.0 0.00 0.00 0.00 70 1011.1
20260901024018 64 242 12.0 18.0 0.00 0.00 0.00 69 1011.1
20260901023520 65 247 11.0 20.0 0.00 0.00 0.00 69 1011.1
20260901023037 65 235 11.0 20.0 0.00 0.00 0.00 68 1011.2
20260901022518 65 271 12.0 20.0 0.00 0.00 0.00 67 1011.1
20260901022018 66 256 13.0 19.0 0.00 0.00 0.00 67 1011.1
20260901021537 66 253 11.0 18.0 0.00 0.00 0.00 66 1011.0
20260901021020 67 271 10.0 18.0 0.00 0.00 0.00 65 1011.0
20260901020517 67 236 10.0 18.0 0.00 0.00 0.00 64 1011.0
20260901020037 68 250 11.0 17.0 0.00 0.00 0.00 63 1011.0
20260901015518 68 243 10.0 17.0 0.00 0.00 0.00 62 1010.8
20260901015024 69 254 11.0 17.0 0.00 0.00 0.00 62 1010.9
20260901014544 69 252 9.0 16.0 0.00 0.00 0.00 61 1010.9
20260901014017 70 246 11.0 18.0 0.00 0.00 0.00 60 1010.9
20260901013517 70 250 11.0 18.0 0.00 0.00 0.00 59 1010.8
20260901013036 71 261 10.0 17.0 0.00 0.00 0.00 58 1010.7
20260901012516 71 255 12.0 17.0 0.00 0.00 0.00 57 1010.8
20260901012016 71 250 10.0 17.0 0.00 0.00 0.00 56 1010.8
20260901011535 71 240 11.0 16.0 0.00 0.00 0.00 57 1010.8
20260901011021 71 267 10.0 16.0 0.00 0.00 0.00 57 1010.9
20260901010520 72 260 11.0 16.0 0.00 0.00 0.00 56 1010.8
20260901010035 72 240 10.0 17.0 0.00 0.00 0.00 55 1010.8
20260901005518 73 247 11.0 17.0 0.00 0.00 0.00 54 1010.8
20260901005017 73 244 10.0 16.0 0.00 0.00 0.00 54 1010.8
20260901004542 74 261 10.0 16.0 0.00 0.00 0.00 53 1010.9
20260901004016 74 238 11.0 16.0 0.00 0.00 0.00 52 1011.0
20260901003517 74 252 12.0 16.0 0.00 0.00 0.00 52 1010.9
20260901003037 74 232 9.0 17.0 0.00 0.00 0.00 52 1011.0
20260901002518 74 244 11.0 17.0 0.00 0.00 0.00 52 1010.9
20260901002019 75 290 11.0 15.0 0.00 0.00 0.00 51 1010.8
20260901001550 75 254 10.0 15.0 0.00 0.00 0.00 51 1010.9
20260901001019 75 258 9.0 17.0 0.00 0.00 0.00 52 1010.9
20260901000518 75 288 9.0 17.0 0.00 0.00 0.00 50 1010.8
20260901000036 75 223 10.0 17.0 0.00 0.00 0.00 51 1010.9
20260831235519 75 276 11.0 16.0 0.00 0.00 0.00 51 1010.9
20260831235018 75 250 11.0 16.0 0.00 0.00 0.00 51 1011.0
20260831234536 76 267 11.0 16.0 0.00 0.00 0.00 50 1010.9
20260831234019 76 265 9.0 13.0 0.00 0.00 0.00 50 1010.9
20260831233519 76 261 7.0 14.0 0.00 0.00 0.00 51 1010.9
20260831233037 76 268 10.0 15.0 0.00 0.00 0.00 50 1011.0
20260831232519 77 240 10.0 15.0 0.00 0.00 0.00 49 1011.0
20260831232018 77 241 9.0 16.0 0.00 0.00 0.00 49 1011.1
20260831231539 77 274 9.0 16.0 0.00 0.00 0.00 50 1011.1
20260831231018 76 279 10.0 14.0 0.00 0.00 0.00 49 1011.1
20260831230520 77 250 10.0 14.0 0.00 0.00 0.00 49 1011.2
20260831230037 77 258 8.0 16.0 0.00 0.00 0.00 50 1011.3
20260831225521 77 256 10.0 16.0 0.00 0.00 0.00 49 1011.3
20260831225019 78 247 10.0 16.0 0.00 0.00 0.00 49 1011.3
20260831224537 77 230 11.0 16.0 0.00 0.00 0.00 48 1011.4
20260831224020 78 248 10.0 16.0 0.00 0.00 0.00 48 1011.3
20260831223519 79 269 10.0 16.0 0.00 0.00 0.00 46 1011.3
20260831223035 78 279 11.0 16.0 0.00 0.00 0.00 46 1011.4
20260831222517 79 267 9.0 15.0 0.00 0.00 0.00 47 1011.4
20260831222019 79 269 11.0 15.0 0.00 0.00 0.00 46 1011.4
20260831221537 78 277 9.0 19.0 0.00 0.00 0.00 46 1011.4
20260831221018 78 250 10.0 19.0 0.00 0.00 0.00 45 1011.5
20260831220522 79 242 8.0 18.0 0.00 0.00 0.00 45 1011.5
20260831220037 80 254 9.0 15.0 0.00 0.00 0.00 44 1011.5
20260831215519 79 223 9.0 18.0 0.00 0.00 0.00 44 1011.6
20260831215020 79 255 10.0 18.0 0.00 0.00 0.00 45 1011.6
20260831214536 79 277 10.0 18.0 0.00 0.00 0.00 45 1011.7
20260831214019 79 238 10.0 16.0 0.00 0.00 0.00 47 1011.7
20260831213520 79 278 8.0 16.0 0.00 0.00 0.00 45 1011.8
20260831213036 78 257 10.0 16.0 0.00 0.00 0.00 45 1011.9
20260831212519 79 274 9.0 14.0 0.00 0.00 0.00 45 1011.9
20260831212017 78 258 8.0 16.0 0.00 0.00 0.00 46 1011.9
20260831211538 78 238 9.0 16.0 0.00 0.00 0.00 46 1011.9
20260831211016 78 286 9.0 16.0 0.00 0.00 0.00 45 1011.9
20260831210517 78 287 6.0 15.0 0.00 0.00 0.00 48 1011.8
20260831210043 77 225 9.0 15.0 0.00 0.00 0.00 48 1011.9
20260831205518 77 242 7.0 14.0 0.00 0.00 0.00 47 1012.0
20260831205020 77 244 10.0 14.0 0.00 0.00 0.00 47 1012.1
20260831204538 77 302 6.0 14.0 0.00 0.00 0.00 47 1012.0
20260831204020 77 244 10.0 14.0 0.00 0.00 0.00 47 1012.1
20260831203520 77 215 7.0 15.0 0.00 0.00 0.00 46 1012.1
20260831203037 77 248 7.0 15.0 0.00 0.00 0.00 47 1012.2
20260831202519 77 255 11.0 17.0 0.00 0.00 0.00 46 1012.2
20260831202016 77 234 10.0 17.0 0.00 0.00 0.00 47 1012.3
20260831201546 76 235 10.0 17.0 0.00 0.00 0.00 48 1012.4
20260831201019 75 255 8.0 15.0 0.00 0.00 0.00 50 1012.4
20260831200520 75 243 11.0 15.0 0.00 0.00 0.00 50 1012.4
20260831200036 75 257 8.0 16.0 0.00 0.00 0.00 50 1012.5
20260831195518 75 259 11.0 16.0 0.00 0.00 0.00 50 1012.4
20260831195019 75 261 11.0 16.0 0.00 0.00 0.00 50 1012.7
20260831194536 74 226 10.0 14.0 0.00 0.00 0.00 50 1012.5
20260831194024 74 250 8.0 14.0 0.00 0.00 0.00 51 1012.7
20260831193520 74 251 10.0 15.0 0.00 0.00 0.00 51 1012.8
20260831193037 74 267 10.0 15.0 0.00 0.00 0.00 53 1012.8
20260831192519 74 228 10.0 17.0 0.00 0.00 0.00 54 1013.0
20260831192020 73 229 10.0 17.0 0.00 0.00 0.00 53 1013.0
20260831191541 73 252 12.0 17.0 0.00 0.00 0.00 52 1013.0
20260831191018 73 252 9.0 17.0 0.00 0.00 0.00 54 1012.9
20260831190520 72 228 11.0 15.0 0.00 0.00 0.00 53 1012.9
20260831190038 72 230 9.0 16.0 0.00 0.00 0.00 54 1012.9
20260831185517 73 251 11.0 16.0 0.00 0.00 0.00 54 1012.9
20260831185015 72 264 10.0 14.0 0.00 0.00 0.00 56 1012.9
20260831184538 71 235 8.0 16.0 0.00 0.00 0.00 57 1012.8
20260831184017 70 265 9.0 16.0 0.00 0.00 0.00 57 1012.9
20260831183518 70 218 11.0 17.0 0.00 0.00 0.00 57 1012.9
20260831183036 70 234 11.0 17.0 0.00 0.00 0.00 58 1012.8
20260831182518 69 269 10.0 17.0 0.00 0.00 0.00 58 1012.8
20260831182018 70 237 10.0 17.0 0.00 0.00 0.00 57 1012.8
20260831181543 70 242 11.0 17.0 0.00 0.00 0.00 58 1012.8
20260831181020 70 222 8.0 14.0 0.00 0.00 0.00 60 1012.8
20260831180517 69 246 8.0 17.0 0.00 0.00 0.00 61 1012.8
20260831180038 69 241 11.0 17.0 0.00 0.00 0.00 59 1012.8
20260831175516 69 287 9.0 14.0 0.00 0.00 0.00 61 1012.8
20260831175019 70 236 10.0 15.0 0.00 0.00 0.00 59 1012.8
20260831174535 69 261 10.0 15.0 0.00 0.00 0.00 60 1012.7
20260831174121 69 265 9.0 14.0 0.00 0.00 0.00 61 1012.7
20260831173519 69 272 9.0 14.0 0.00 0.00 0.00 61 1012.7
20260831173036 69 261 9.0 14.0 0.00 0.00 0.00 61 1012.8
20260831172517 69 248 9.0 17.0 0.00 0.00 0.00 61 1012.7
20260831172020 68 240 9.0 17.0 0.00 0.00 0.00 62 1012.7
20260831171535 68 255 10.0 17.0 0.00 0.00 0.00 62 1012.6
20260831171016 68 236 8.0 15.0 0.00 0.00 0.00 63 1012.5
20260831170521 68 262 10.0 15.0 0.00 0.00 0.00 62 1012.5
20260831170043 67 238 10.0 15.0 0.00 0.00 0.00 63 1012.5
20260831165517 67 256 10.0 14.0 0.00 0.00 0.00 64 1012.5
20260831165019 67 226 9.0 14.0 0.00 0.00 0.00 64 1012.5
20260831164537 67 246 8.0 14.0 0.00 0.00 0.00 65 1012.5
20260831164018 66 223 9.0 14.0 0.00 0.00 0.00 66 1012.5
20260831163518 66 220 9.0 13.0 0.00 0.00 0.00 67 1012.5
20260831163039 65 261 9.0 13.0 0.00 0.00 0.00 67 1012.5
20260831162520 65 281 5.0 11.0 0.00 0.00 0.00 68 1012.4
20260831162016 65 254 8.0 11.0 0.00 0.00 0.00 69 1012.4
20260831161537 64 250 6.0 10.0 0.00 0.00 0.00 70 1012.4
20260831161023 64 227 5.0 10.0 0.00 0.00 0.00 72 1012.4
20260831160519 63 283 5.0 10.0 0.00 0.00 0.00 72 1012.5
20260831160050 63 250 6.0 11.0 0.00 0.00 0.00 73 1012.5
20260831155520 63 251 6.0 12.0 0.00 0.00 0.00 73 1012.5
20260831155020 62 254 6.0 12.0 0.00 0.00 0.00 74 1012.4
20260831154602 62 266 8.0 12.0 0.00 0.00 0.00 74 1012.4
20260831154018 62 257 7.0 11.0 0.00 0.00 0.00 76 1012.4
20260831153520 61 234 7.0 11.0 0.00 0.00 0.00 77 1012.4
20260831153038 61 267 4.0 8.0 0.00 0.00 0.00 79 1012.3
20260831152516 60 225 3.0 10.0 0.00 0.00 0.00 80 1012.4
20260831152021 60 241 6.0 10.0 0.00 0.00 0.00 81 1012.3
20260831151538 59 275 4.0 7.0 0.00 0.00 0.00 82 1012.3
20260831151021 59 289 2.0 7.0 0.00 0.00 0.00 82 1012.3
20260831150521 58 264 3.0 7.0 0.00 0.00 0.00 83 1012.2
20260831150035 58 250 3.0 7.0 0.00 0.00 0.00 84 1012.1
20260831145518 57 289 2.0 6.0 0.00 0.00 0.00 85 1012.1
20260831145023 57 258 3.0 6.0 0.00 0.00 0.00 86 1012.0
20260831144536 57 0 0.0 4.0 0.00 0.00 0.00 86 1011.9
20260831144018 56 269 1.0 4.0 0.00 0.00 0.00 86 1011.9
20260831143518 56 283 2.0 6.0 0.00 0.00 0.00 86 1011.8
20260831143040 56 262 3.0 6.0 0.00 0.00 0.00 86 1011.7
20260831142518 55 265 3.0 6.0 0.00 0.00 0.00 86 1011.7
20260831142020 55 0 0.0 0.0 0.00 0.00 0.00 86 1011.7
20260831141539 55 0 0.0 0.0 0.00 0.00 0.00 86 1011.7
20260831141018 55 0 0.0 0.0 0.00 0.00 0.00 85 1011.6
20260831140522 55 0 0.0 0.0 0.00 0.00 0.00 85 1011.5
20260831140043 55 0 0.0 2.0 0.00 0.00 0.00 85 1011.5
20260831135520 55 0 0.0 3.0 0.00 0.00 0.00 85 1011.4
20260831135018 55 0 0.0 4.0 0.00 0.00 0.00 85 1011.3
20260831134538 55 275 1.0 6.0 0.00 0.00 0.00 85 1011.3
20260831134019 55 259 2.0 6.0 0.00 0.00 0.00 85 1011.2
20260831133521 55 259 3.0 6.0 0.00 0.00 0.00 85 1011.2
20260831133036 55 261 3.0 6.0 0.00 0.00 0.00 85 1011.1
20260831132521 55 267 2.0 6.0 0.00 0.00 0.00 85 1011.0
20260831132025 55 250 3.0 7.0 0.00 0.00 0.00 85 1011.0
20260831131538 55 253 3.0 7.0 0.00 0.00 0.00 85 1011.1
20260831131023 55 238 4.0 8.0 0.00 0.00 0.00 85 1011.0
20260831130520 56 257 5.0 8.0 0.00 0.00 0.00 85 1011.0
20260831130038 56 252 4.0 8.0 0.00 0.00 0.00 85 1010.8
20260831125519 56 264 4.0 9.0 0.00 0.00 0.00 85 1010.8
20260831125020 56 254 3.0 10.0 0.00 0.00 0.00 85 1010.8
20260831124537 56 256 6.0 10.0 0.00 0.00 0.00 86 1010.8
20260831124017 55 269 5.0 8.0 0.00 0.00 0.00 85 1010.7
20260831123516 55 267 5.0 9.0 0.00 0.00 0.00 86 1010.6
20260831123038 55 269 5.0 9.0 0.00 0.00 0.00 86 1010.6
20260831122521 55 283 6.0 9.0 0.00 0.00 0.00 86 1010.6
20260831122018 54 243 4.0 7.0 0.00 0.00 0.00 86 1010.7
20260831121536 54 277 3.0 7.0 0.00 0.00 0.00 85 1010.6
20260831121019 54 0 0.0 0.0 0.00 0.00 0.00 85 1010.6
20260831120523 54 0 0.0 0.0 0.00 0.00 0.00 84 1010.6
20260831120040 54 0 0.0 0.0 0.00 0.00 0.00 84 1010.7
20260831115518 54 0 0.0 0.0 0.00 0.00 0.00 84 1010.7
20260831115018 54 0 0.0 0.0 0.00 0.00 0.00 84 1010.7
20260831114547 54 0 0.0 0.0 0.00 0.00 0.00 84 1010.7
20260831114018 54 0 0.0 0.0 0.00 0.00 0.00 84 1010.6
20260831113518 54 0 0.0 0.0 0.00 0.00 0.00 85 1010.6
20260831113039 54 0 0.0 0.0 0.00 0.00 0.00 84 1010.6
20260831112516 54 0 0.0 0.0 0.00 0.00 0.00 84 1010.6
20260831112018 54 0 0.0 0.0 0.00 0.00 0.00 83 1010.6
20260831111538 54 0 0.0 0.0 0.00 0.00 0.00 82 1010.7
20260831111020 54 0 0.0 0.0 0.00 0.00 0.00 83 1010.8
20260831110518 54 0 0.0 0.0 0.00 0.00 0.00 82 1010.8
20260831110049 54 0 0.0 0.0 0.00 0.00 0.00 82 1010.8
20260831105520 54 0 0.0 0.0 0.00 0.00 0.00 82 1010.7
20260831105018 54 0 0.0 0.0 0.00 0.00 0.00 80 1010.7
20260831104541 55 0 0.0 0.0 0.00 0.00 0.00 80 1010.7
20260831104018 56 0 0.0 0.0 0.00 0.00 0.00 78 1010.7
20260831103518 56 0 0.0 0.0 0.00 0.00 0.00 79 1010.7
20260831103039 57 0 0.0 0.0 0.00 0.00 0.00 81 1010.6
20260831102517 56 0 0.0 0.0 0.00 0.00 0.00 79 1010.6
20260831102017 56 0 0.0 0.0 0.00 0.00 0.00 80 1010.6
20260831101545 56 0 0.0 0.0 0.00 0.00 0.00 81 1010.5
20260831101018 56 0 0.0 0.0 0.00 0.00 0.00 81 1010.4
20260831100518 56 0 0.0 0.0 0.00 0.00 0.00 82 1010.4
20260831100034 55 0 0.0 0.0 0.00 0.00 0.00 81 1010.4
20260831095518 55 0 0.0 0.0 0.00 0.00 0.00 82 1010.4
20260831095023 55 0 0.0 0.0 0.00 0.00 0.00 83 1010.4
20260831094541 55 0 0.0 0.0 0.00 0.00 0.00 81 1010.5
20260831094019 56 0 0.0 0.0 0.00 0.00 0.00 79 1010.5
20260831093518 56 0 0.0 0.0 0.00 0.00 0.00 81 1010.4
20260831093037 57 0 0.0 0.0 0.00 0.00 0.00 80 1010.5
20260831092518 57 0 0.0 0.0 0.00 0.00 0.00 81 1010.4
20260831092019 57 0 0.0 0.0 0.00 0.00 0.00 80 1010.5
20260831091546 57 0 0.0 0.0 0.00 0.00 0.00 81 1010.6
20260831091019 57 0 0.0 0.0 0.00 0.00 0.00 80 1010.5
20260831090518 58 0 0.0 0.0 0.00 0.00 0.00 80 1010.5
20260831090037 58 0 0.0 0.0 0.00 0.00 0.00 80 1010.6
20260831085522 58 0 0.0 0.0 0.00 0.00 0.00 79 1010.5
20260831085020 58 0 0.0 0.0 0.00 0.00 0.00 76 1010.5
20260831084537 59 0 0.0 0.0 0.00 0.00 0.00 75 1010.6
20260831084020 59 0 0.0 0.0 0.00 0.00 0.00 74 1010.6
20260831083519 59 0 0.0 0.0 0.00 0.00 0.00 73 1010.5
20260831083037 61 0 0.0 0.0 0.00 0.00 0.00 71 1010.5
20260831082516 61 0 0.0 0.0 0.00 0.00 0.00 71 1010.4
20260831082018 61 0 0.0 0.0 0.00 0.00 0.00 71 1010.5
20260831081536 61 0 0.0 0.0 0.00 0.00 0.00 70 1010.4
20260831081018 62 0 0.0 0.0 0.00 0.00 0.00 70 1010.6
20260831080519 62 0 0.0 0.0 0.00 0.00 0.00 70 1010.5
20260831080037 62 0 0.0 0.0 0.00 0.00 0.00 70 1010.5
20260831075518 61 0 0.0 0.0 0.00 0.00 0.00 71 1010.6
20260831075019 61 0 0.0 0.0 0.00 0.00 0.00 70 1010.6
20260831074541 61 0 0.0 0.0 0.00 0.00 0.00 71 1010.6
20260831074017 61 0 0.0 0.0 0.00 0.00 0.00 71 1010.5
20260831073516 62 0 0.0 0.0 0.00 0.00 0.00 70 1010.6
20260831073036 62 0 0.0 0.0 0.00 0.00 0.00 71 1010.6
20260831072516 62 0 0.0 0.0 0.00 0.00 0.00 70 1010.6
20260831072015 62 0 0.0 0.0 0.00 0.00 0.00 69 1010.6
20260831071540 62 0 0.0 0.0 0.00 0.00 0.00 70 1010.5
20260831071018 62 0 0.0 0.0 0.00 0.00 0.00 69 1010.6
20260831070520 62 0 0.0 0.0 0.00 0.00 0.00 69 1010.5
20260831070036 62 0 0.0 0.0 0.00 0.00 0.00 68 1010.5
20260831065518 63 0 0.0 0.0 0.00 0.00 0.00 68 1010.6
20260831065022 63 0 0.0 0.0 0.00 0.00 0.00 68 1010.6
20260831064536 63 0 0.0 0.0 0.00 0.00 0.00 68 1010.6
20260831064017 63 0 0.0 0.0 0.00 0.00 0.00 67 1010.6
20260831063518 63 0 0.0 0.0 0.00 0.00 0.00 69 1010.6
20260831063038 63 0 0.0 0.0 0.00 0.00 0.00 68 1010.6
20260831062518 63 0 0.0 0.0 0.00 0.00 0.00 68 1010.7
20260831062019 63 0 0.0 0.0 0.00 0.00 0.00 68 1010.7
20260831061537 63 0 0.0 0.0 0.00 0.00 0.00 68 1010.7
20260831061021 63 0 0.0 0.0 0.00 0.00 0.00 67 1010.7
20260831060518 63 0 0.0 0.0 0.00 0.00 0.00 67 1010.7